Content
SEND FEEDBACK

Daily
Averages
Monthly
Summary
United States of America

AGAT, GUAM


Home > North America > United States > Guam
Elevation: 364 feet     Latitude: 13 33N     Longitude: 144 50E

WEATHER
 
SELECT A DAY
Number of Records: 208,997;   Date Range: 1/1/95 - 7/26/14
 
SHARE

PRINT THIS DATA

[ ← Previous Day ]
WEATHER ALMANAC - JANUARY 9, 2013
[ Next Day → ]
[ °C ]   °F
Weather ElementAverageHighLow
Temperature80 °F84.9 °F (1:54 pm)75.2 °F (12:26 am)
Dewpoint74.6 °F77 °F (9:54 am)73 °F (3:54 pm)
Humidity84 %100 % (5:34 am)67 % (3:54 pm)
Barometer29.81 in29.88 in (8:41 am)29.75 in (1:54 pm)
Wind Speed11.3 mph17.3 mph (5:25 am)
Wind Gust25.3 mph (12:26 am)
Weather ElementAverage
Visibility8.8 mi
Wind DirectionENE (81.8 °)

Weather ElementTotal
Precipitation0.93 in
Cooling Degree Days15.1 (Base 65)
Growing Degree Days30.1 (Base 50)
Averaged from 45 records on January 9, 2013
WEATHER CONDITIONS BREAKOUT
WIND DIRECTION BREAKOUT
WEATHER BY HOUR - JANUARY 9, 2013
[ °C ]   °F
Local TimeTemperatureDewpointHumidityBarometerVisibilityWind DirectionWind SpeedGust SpeedPrecipitationEventsConditions
12:26 AM75.2 °F73.4 °F94 %29.85 in2.5 miEast (90°)15.0 mph25.3 mph0.02 inRainHeavy Rain
12:31 AM75.2 °F73.4 °F94 %29.85 in3.0 miEast (100°)11.5 mph0.04 inRainLight Rain
12:42 AM75.2 °F73.4 °F94 %29.84 in2.0 miENE (70°)16.1 mph23.0 mph0.09 inRainRain
12:54 AM77.0 °F75.0 °F94 %29.82 in8.0 miENE (60°)13.8 mph0.14 inRainLight Rain
1:18 AM75.2 °F73.4 °F94 %29.83 in7.0 miENE (70°)13.8 mph24.2 mph0.09 inRainLight Rain
1:54 AM78.1 °F75.9 °F93 %29.80 in10.0 miENE (70°)10.4 mph0.09 inMostly Cloudy
2:13 AM78.8 °F75.2 °F89 %29.81 in10.0 miENE (70°)12.7 mphMostly Cloudy
2:54 AM78.1 °F75.9 °F93 %29.78 in9.0 miEast (80°)12.7 mphMostly Cloudy
3:54 AM78.1 °F75.9 °F93 %29.77 in10.0 miEast (80°)11.5 mph0.00 inPartly Cloudy
4:54 AM78.1 °F75.9 °F93 %29.78 in10.0 miEast (80°)9.2 mphScattered Clouds
5:25 AM77.0 °F75.2 °F94 %29.81 in4.0 miEast (80°)17.3 mph23.0 mph0.00 inRainHeavy Rain
5:34 AM75.2 °F75.2 °F100 %29.82 in2.0 miEast (90°)13.8 mph0.10 inRainHeavy Rain
5:46 AM77.0 °F75.2 °F94 %29.81 in5.0 miEast (80°)8.1 mph0.15 inRainLight Rain
5:54 AM77.0 °F75.9 °F96 %29.80 in10.0 miEast (80°)5.8 mph0.16 inMostly Cloudy
6:01 AM77.0 °F75.2 °F94 %29.82 in10.0 miEast (80°)11.5 mph18.4 mphMostly Cloudy
6:54 AM78.1 °F75.9 °F93 %29.82 in10.0 miEast (80°)8.1 mphPartly Cloudy
7:54 AM80.1 °F75.9 °F87 %29.85 in10.0 miEast (80°)8.1 mphScattered Clouds
8:41 AM80.6 °F75.2 °F84 %29.88 in10.0 miEast (90°)9.2 mph18.4 mphMostly Cloudy
8:54 AM81.0 °F75.9 °F85 %29.85 in10.0 miEast (80°)11.5 mph18.4 mphMostly Cloudy
9:04 AM82.4 °F75.2 °F79 %29.87 in10.0 miEast (100°)12.7 mphScattered Clouds
9:54 AM82.9 °F77.0 °F82 %29.84 in10.0 miEast (80°)13.8 mph24.2 mphScattered Clouds
10:32 AM82.4 °F75.2 °F79 %29.85 in10.0 miEast (90°)13.8 mph21.9 mphScattered Clouds
10:54 AM84.0 °F75.0 °F74 %29.83 in10.0 miEast (100°)16.1 mph23.0 mphScattered Clouds
11:38 AM84.2 °F73.4 °F70 %29.83 in10.0 miEast (100°)12.7 mph21.9 mphMostly Cloudy
11:54 AM84.0 °F75.0 °F74 %29.80 in10.0 miEast (90°)13.8 mph24.2 mphScattered Clouds
12:54 PM84.0 °F73.9 °F72 %29.77 in10.0 miEast (80°)17.3 mph23.0 mphScattered Clouds
1:12 PM84.2 °F73.4 °F70 %29.79 in10.0 miENE (70°)17.3 mphMostly Cloudy
1:54 PM84.9 °F73.9 °F69 %29.75 in10.0 miEast (90°)11.5 mphScattered Clouds
2:03 PM84.2 °F73.4 °F70 %29.78 in10.0 miEast (80°)13.8 mph19.6 mphMostly Cloudy
2:32 PM84.2 °F73.4 °F70 %29.77 in10.0 miENE (70°)16.1 mphMostly Cloudy
2:54 PM84.0 °F73.9 °F72 %29.75 in10.0 miEast (80°)16.1 mph23.0 mphScattered Clouds
3:04 PM82.4 °F73.4 °F74 %29.77 in10.0 miEast (80°)10.4 mph0.00 inMostly Cloudy
3:12 PM82.4 °F73.4 °F74 %29.77 in10.0 miEast (80°)10.4 mph0.00 inMostly Cloudy
3:54 PM84.9 °F73.0 °F67 %29.75 in10.0 miEast (90°)12.7 mphPartly Cloudy
4:54 PM82.9 °F73.0 °F72 %29.76 in10.0 miEast (90°)12.7 mphClear
5:54 PM81.0 °F73.0 °F77 %29.78 in10.0 miEast (80°)8.1 mphPartly Cloudy
6:54 PM80.1 °F73.0 °F79 %29.80 in10.0 miEast (80°)8.1 mphPartly Cloudy
7:54 PM80.1 °F73.0 °F79 %29.81 in10.0 miENE (70°)5.8 mphScattered Clouds
8:54 PM79.0 °F75.0 °F88 %29.82 in10.0 miEast (80°)4.6 mph0.00 inMostly Cloudy
9:24 PM78.8 °F73.4 °F83 %29.84 in10.0 miEast (90°)4.6 mphMostly Cloudy
9:54 PM79.0 °F75.0 °F88 %29.82 in5.0 miENE (70°)9.2 mph0.05 inRainLight Rain
10:54 PM78.1 °F75.9 °F93 %29.82 in10.0 miEast (80°)5.8 mph0.00 inScattered Clouds
11:05 PM78.8 °F75.2 °F89 %29.84 in10.0 miEast (80°)5.8 mphMostly Cloudy
11:14 PM78.8 °F75.2 °F89 %29.84 in10.0 miEast (80°)6.9 mphScattered Clouds
11:54 PM78.1 °F73.9 °F87 %29.82 in10.0 miEast (90°)8.1 mphPartly Cloudy
Hourly data recorded from PGUM, located miles away from Agat, Guam







STORIES FROM OUR PARTNERS